Back to catalog

TELSTAR 3D R/B

PAM-D

AliveGTO
NORAD 15837·ROCKET BODY·🇺🇸 United States

Launched Jun 17, 1985 from Cape Canaveral Space Force Station

Loading…

TLE

AgingSource: Space-Track

Epoch: Sep 14, 2026, 10:03 UTC

1 15837U 85048H   26257.41908698 -.00000021  00000-0  46250-3 0  9990
2 15837  25.5991 272.0215 7197601 109.1353 336.2104  2.29320759286205

Track TELSTAR 3D R/B in real time with AllMySat

Download on the App Store